Vertical_Velocity
-2 0 0 -2 -1 -2 -1 -2 -0 -1 -1 2 -1 -1 -1 -1 2 -1 -3 -4 -2 -2 -1 -1 -1 -0 -1 3 3 2 0 1 -1 -1 1 -1 0 6 0 0 5 -6 6 3 1 1 -5
-1 -0 -0 0 -0 -1 -1 -2 -1 0 -1 -3 -2 0 -2 -0 -1 2 -1 -1 -2 -1 -0 -2 -2 -1 0 5 1 3 5 2 4 4 5 6 4 7 2 0 -0 1 5 7 8 9 -3
0 -1 -2 1 0 -1 -2 -1 0 -2 -0 -1 -2 -2 -1 -0 3 -2 -1 0 -1 -1 -0 -1 -1 0 1 6 1 -3 1 2 3 7 4 1 5 6 7 6 5 -1 -12 -1 12 4 -3
-0 1 -1 -3 -1 -1 -0 -2 -1 -1 -2 -1 -1 -0 -0 0 0 -1 -3 -2 -1 -3 -0 -2 1 1 2 -2 -3 -3 3 2 4 2 2 4 5 0 -1 3 4 3 2 -1 -1 -1 3
-0 -3 -3 -1 -2 -0 -1 -2 -2 -1 -2 -2 -2 -1 -1 -1 -4 -1 -2 -2 -1 -3 -1 -2 -2 1 1 1 -1 -0 1 2 3 5 5 4 4 7 5 3 3 -0 -11 0 2 1 0
-1 -2 -3 -1 -1 -2 -1 -2 -1 -2 -2 -2 -1 -2 1 -1 -3 -2 -2 -3 -3 -3 -2 -1 -1 2 3 -1 1 0 -3 0 2 5 5 4 3 3 4 6 -22 -6 -13 -1 -1 -6 -1
-1 -0 -2 -1 -1 -2 -1 -1 -2 -2 -1 -0 0 -2 -4 -3 -4 -4 2 -3 -1 -7 -6 4 1 6 -3 0 -1 1 -1 2 2 -1 -1 3 1 -4 4 1 7 7 6 3 5 2 1
-2 -1 -2 -1 -2 -2 -2 -2 -2 -1 0 -1 -1 -1 -4 -4 -4 -4 -6 -4 -4 -4 -3 -2 1 2 3 -3 0 3 2 -2 -4 0 8 4 -3 -1 6 3 9 6 4 -12 -5 -2 0
-2 -1 -1 -2 -3 -2 -1 -3 -1 -1 -1 -1 -1 -2 -2 -1 -1 -0 -3 -4 -5 -0 5 -2 -2 -3 0 2 2 -6 -5 -1 1 -2 2 2 -4 -7 5 -1 3 5 11 3 -1 -2 -3
-2 -0 -3 -2 0 -3 -0 -0 -2 -2 -3 -3 -3 -3 -1 -3 -1 -6 -8 -7 -7 -5 1 3 2 2 1 2 0 -2 0 -5 0 -0 0 1 5 11 6 6 3 2 5 4 5 18 -4
-0 -0 -1 -3 -0 -1 -1 -1 -3 -2 -1 0 -3 -4 -4 -9 -4 -4 -5 -3 -3 -0 -2 5 -0 4 4 0 -1 -9 -1 -1 0 -1 1 -0 -6 -9 -1 4 8 -7 0 -1 -2 3 11
-0 -0 -3 -2 -1 -1 -2 -1 -2 -2 -4 -4 -4 -4 -3 -1 -4 -4 -5 -5 -6 -1 -8 0 4 -3 -6 -4 1 -5 -7 3 -3 -4 2 0 3 1 3 -4 6 1 -1 0 3 6 10
-1 -1 -1 -1 -1 0 -1 -3 -2 -3 -2 -2 -3 -2 -4 -4 -7 -7 -4 -3 -2 -2 4 5 -4 -7 -4 -10 -5 -4 -13 -6 -6 -8 -8 -6 -4 -2 4 -13 -1 7 -3 -4 5 13 -5
-0 -2 -2 -2 1 -0 -1 -4 -1 -3 -1 -2 -1 -4 -2 -3 -3 -3 -4 -9 1 1 -3 1 -1 1 -2 -14 -5 -9 -4 -4 -0 -1 0 -0 -14 -10 9 16 -4 2 4 4 2 1 -2
-1 -0 -1 -1 -1 -2 -1 -2 -3 -1 -3 -2 -4 -2 -2 -3 -3 -5 -11 -3 -3 1 1 -4 -8 -3 -3 -0 1 -14 -6 1 6 -0 -2 -1 -7 -19 21 5 12 -2 -1 5 3 -2 6
-1 -1 -0 -1 -2 -1 -1 -3 -3 -2 -2 -4 -6 -2 -2 -6 -5 -8 -4 -3 2 -2 -0 -1 -2 -2 -3 -8 -5 -1 -7 2 6 10 13 -5 -7 -1 -3 -3 4 7 -2 -4 -2 3 1
-1 -1 -1 -1 -1 -1 -2 -3 -3 -2 -4 -5 -2 -3 -3 -5 -4 -4 -14 -0 -0 1 0 -1 1 -3 3 -2 2 1 -1 -11 7 -9 -2 1 6 -31 3 5 2 -2 -2 -4 3 6 4
1 -2 -1 -1 -1 -1 -2 -3 -4 -3 -4 2 -2 -7 -5 -4 -6 -7 -1 -4 1 -3 -0 0 -3 -0 1 1 -8 3 1 12 6 1 -6 8 -0 -6 -9 2 2 3 -1 1 1 -7 -0
-2 -2 1 -2 -1 -1 -3 -2 -5 -5 -5 -6 -10 -3 -4 -7 -15 -7 2 -1 -4 -3 -3 -2 1 -0 5 1 -1 3 1 6 -0 -0 -8 -6 1 -3 -2 9 -0 -1 -3 -2 -0 3 0
-2 -1 -0 -2 -0 -2 -3 -4 -3 -4 -3 -4 -6 -3 -7 -4 1 -2 -4 -4 -1 -1 -2 -1 0 2 -1 1 10 -18 2 -2 1 -1 0 3 8 6 4 7 7 5 -1 0 -0 2 1
-1 -1 1 1 -0 -3 -4 -3 -4 -4 -3 -5 -1 -3 -5 -6 -6 -5 -0 -1 -9 -6 2 -0 -6 23 34 -5 -5 -1 9 -4 8 0 1 7 -5 7 2 1 -1 -1 0 -1 -6 0 2
-1 -1 1 -1 -2 -4 -4 -3 -5 -1 -1 3 -3 -5 -3 -1 -3 -3 -6 -7 1 -7 -3 -3 2 4 6 2 9 -21 -3 32 7 -3 1 2 -2 13 -1 3 2 -10 0 3 0 -1 -3
0 -0 0 -2 -3 -2 -5 -5 -4 -3 -2 1 -10 -5 1 -3 -4 -1 -7 -1 0 -3 5 2 -0 -5 1 3 1 2 11 4 5 2 -6 -1 3 3 0 2 0 -2 -5 -3 0 2 1
-1 1 -0 -2 -2 -4 -5 -4 -3 -5 -2 -5 -2 0 -6 -5 0 -3 -1 0 1 -1 -3 -2 4 0 2 9 -2 -2 2 4 5 -2 -1 -3 1 3 0 3 -6 -0 -0 -0 -1 -1 0
-1 -0 -2 -3 -2 -3 -4 -3 -2 -3 -1 -4 1 -2 -5 -4 -7 0 1 -3 3 6 -1 -1 0 -2 -5 0 2 4 7 8 -1 -0 -3 -7 1 0 -1 -2 0 -0 2 2 0 -0 -0
-0 -0 -1 -3 -2 -3 -3 -2 -4 -3 -3 -2 -0 -7 -5 -5 -3 -4 -2 -4 -4 -7 -1 4 2 0 1 -5 -2 -3 -1 -0 -4 -4 -2 7 1 -2 0 -3 -1 1 0 0 0 -1 -1
-1 1 -2 -3 -3 -2 -1 -5 -3 -3 -4 -0 -4 -5 -5 -6 -6 -3 -3 -6 -4 1 -4 -8 -4 -3 -4 -4 -6 -3 -0 -1 -4 -3 -18 -20 -10 -9 -1 -1 0 1 0 1 -0 -0 -0
-1 1 -3 -2 -3 1 -4 -4 -1 -3 -2 -3 -9 -3 -4 -6 -7 -5 -2 -1 -0 -4 -7 2 -7 0 -7 -10 -3 -1 -0 -2 -2 -0 -1 -2 -2 -2 1 -0 -2 -2 -1 1 0 -2 0
-1 -1 -2 -3 -1 -3 -3 -0 -3 -3 -1 -3 -4 -4 -6 -0 -4 -2 -2 -2 -4 -4 -3 -6 -2 -5 -4 -5 -2 -3 -1 1 -2 -1 -0 -4 -1 -2 -1 -1 0 2 1 -0 -0 0 -0
Height
3127 3125 3123 3121 3119 3116 3114 3111 3109 3105 3101 3098 3094 3090 3086 3083 3080 3076 3071 3067 3065 3062 3059 3056 3053 3049 3046 3045 3044 3039 3036 3035 3034 3033 3033 3032 3030 3031 3026 3026 3028 3018 3020 3022 3024 3025 3028
3126 3125 3122 3120 3117 3115 3112 3109 3106 3103 3099 3096 3092 3088 3084 3080 3077 3073 3069 3065 3061 3058 3055 3052 3049 3046 3043 3040 3035 3031 3028 3026 3025 3024 3024 3023 3023 3023 3017 3015 3017 3012 3014 3012 3014 3016 3018
3125 3124 3121 3118 3115 3113 3110 3107 3103 3100 3097 3093 3089 3085 3081 3077 3074 3069 3065 3061 3057 3053 3049 3046 3043 3039 3036 3034 3028 3024 3020 3018 3016 3015 3013 3014 3014 3012 3008 3008 3008 3005 3002 3005 3003 3007 3008
3124 3122 3119 3116 3113 3111 3108 3104 3100 3097 3093 3089 3085 3082 3078 3074 3070 3065 3061 3058 3053 3048 3043 3040 3036 3033 3027 3023 3017 3013 3012 3009 3006 3005 3006 3005 3004 3001 3000 3002 3000 2999 2996 2992 2992 2998 3001
3122 3120 3117 3114 3111 3108 3105 3101 3098 3094 3090 3087 3083 3078 3074 3070 3066 3061 3056 3052 3048 3043 3038 3032 3029 3025 3019 3014 3009 3006 3004 3004 3001 3000 3000 2998 2997 2995 2992 2993 2994 2990 2983 2984 2986 2990 2994
3119 3117 3114 3112 3108 3106 3103 3099 3095 3091 3087 3083 3079 3074 3070 3065 3061 3057 3052 3046 3041 3036 3030 3025 3018 3020 3013 3008 3002 3002 2998 2997 2995 2994 2993 2993 2991 2987 2983 2985 2973 2977 2979 2977 2978 2983 2984
3116 3114 3111 3109 3106 3103 3100 3097 3093 3088 3083 3079 3074 3070 3065 3060 3055 3051 3048 3040 3038 3031 3022 3017 3011 3005 3002 3000 2996 2993 2992 2991 2988 2987 2987 2986 2984 2978 2981 2977 2974 2974 2972 2969 2972 2977 2978
3115 3111 3109 3106 3104 3101 3097 3093 3090 3085 3080 3076 3071 3065 3060 3054 3047 3042 3036 3033 3028 3024 3016 3005 3000 2999 2996 2993 2993 2989 2988 2988 2985 2983 2980 2978 2973 2976 2974 2974 2970 2967 2964 2955 2963 2967 2972
3112 3109 3107 3103 3100 3098 3094 3090 3085 3082 3079 3073 3068 3062 3055 3050 3044 3037 3030 3025 3018 3011 3007 3000 2996 2997 2996 2993 2987 2982 2983 2979 2978 2976 2974 2971 2970 2968 2967 2964 2963 2959 2957 2954 2956 2960 2960
3110 3107 3104 3100 3097 3094 3091 3087 3083 3078 3073 3069 3065 3059 3053 3045 3040 3033 3026 3018 3014 3008 3001 3000 2996 2992 2992 2990 2987 2982 2978 2976 2974 2970 2967 2964 2963 2961 2960 2958 2955 2950 2951 2949 2948 2950 2948
3108 3105 3101 3097 3094 3091 3087 3084 3080 3075 3070 3064 3058 3051 3045 3038 3033 3027 3020 3014 3010 3004 3005 3000 2996 2993 2990 2990 2985 2981 2978 2971 2968 2965 2964 2961 2957 2956 2955 2954 2951 2947 2945 2943 2942 2941 2941
3106 3102 3099 3095 3091 3088 3084 3079 3075 3071 3066 3060 3054 3046 3040 3036 3029 3023 3016 3011 3006 3004 2999 2998 2995 2991 2986 2984 2982 2976 2971 2968 2965 2963 2961 2958 2956 2955 2953 2951 2948 2944 2940 2936 2933 2934 2927
3104 3100 3097 3093 3089 3085 3080 3076 3072 3067 3062 3056 3049 3041 3035 3029 3023 3019 3013 3009 3005 3000 3002 2997 2991 2987 2985 2982 2979 2975 2971 2966 2965 2962 2959 2956 2955 2953 2951 2947 2945 2943 2938 2932 2925 2922 2915
3101 3097 3093 3089 3085 3081 3077 3073 3067 3062 3057 3052 3046 3039 3032 3025 3020 3014 3010 3006 3002 3001 3000 2997 2993 2990 2986 2982 2979 2975 2972 2969 2967 2964 2960 2957 2954 2952 2950 2947 2944 2940 2938 2936 2927 2920 2921
3097 3093 3089 3085 3082 3078 3073 3068 3063 3057 3051 3047 3042 3036 3030 3023 3017 3011 3007 3004 3005 3002 2999 2994 2992 2987 2987 2984 2982 2976 2973 2969 2968 2965 2965 2958 2953 2950 2948 2945 2943 2940 2938 2936 2932 2922 2920
3093 3089 3085 3082 3078 3073 3069 3064 3058 3052 3046 3042 3036 3031 3023 3018 3012 3007 3004 3003 3003 3001 2999 2995 2992 2991 2987 2982 2980 2976 2973 2971 2968 2963 2963 2959 2951 2946 2944 2943 2942 2940 2936 2934 2931 2920 2912
3089 3085 3081 3078 3073 3069 3064 3059 3054 3048 3043 3036 3032 3026 3019 3013 3009 3005 3001 3002 3001 3000 2998 2996 2993 2990 2986 2983 2979 2976 2973 2970 2966 2962 2960 2956 2953 2945 2943 2942 2938 2938 2936 2936 2934 2931 2926
3085 3081 3077 3073 3069 3065 3060 3054 3049 3044 3039 3032 3027 3022 3016 3010 3007 3000 2999 2999 3000 2997 2995 2994 2991 2989 2985 2982 2978 2974 2971 2969 2965 2961 2956 2954 2950 2944 2941 2938 2936 2936 2935 2936 2935 2932 2931
3081 3076 3073 3070 3065 3060 3056 3050 3043 3037 3030 3025 3021 3016 3009 3006 3001 3001 3000 2999 2997 2995 2993 2991 2989 2987 2983 2980 2977 2971 2967 2966 2962 2959 2953 2948 2946 2943 2940 2940 2937 2935 2933 2933 2933 2931 2931
3076 3072 3070 3066 3060 3056 3052 3047 3039 3033 3028 3022 3017 3014 3008 3002 3001 2999 2997 2997 2996 2994 2991 2989 2985 2983 2979 2975 2974 2968 2964 2960 2957 2953 2950 2947 2944 2944 2941 2939 2937 2934 2931 2929 2929 2929 2930
3072 3069 3066 3062 3056 3052 3048 3043 3038 3030 3025 3019 3014 3010 3007 3004 3001 3000 2998 2996 2994 2990 2989 2986 2982 2979 2976 2972 2967 2964 2961 2954 2951 2947 2945 2943 2942 2939 2937 2935 2933 2933 2933 2931 2927 2928 2931
3069 3065 3062 3058 3053 3048 3043 3039 3036 3029 3022 3018 3013 3011 3005 3002 3001 2999 2997 2995 2994 2991 2988 2985 2982 2978 2975 2971 2969 2961 2957 2954 2949 2946 2942 2941 2939 2937 2935 2935 2935 2933 2935 2935 2933 2933 2935
3064 3061 3058 3054 3050 3045 3040 3034 3028 3024 3020 3013 3009 3006 3003 3001 2999 2998 2996 2994 2992 2988 2988 2983 2978 2974 2971 2967 2962 2957 2954 2949 2951 2947 2943 2941 2938 2935 2935 2935 2934 2936 2938 2938 2938 2938 2939
3060 3057 3054 3050 3046 3041 3037 3030 3024 3019 3014 3012 3006 3003 3001 2999 2997 2996 2996 2994 2991 2987 2983 2980 2976 2971 2969 2965 2960 2955 2951 2949 2949 2946 2944 2941 2937 2934 2935 2937 2943 2945 2943 2942 2942 2941 2940
3056 3053 3050 3047 3042 3038 3032 3027 3022 3016 3013 3010 3005 3003 3000 2997 2998 2997 2995 2992 2991 2987 2982 2978 2974 2968 2963 2961 2958 2956 2954 2953 2950 2948 2944 2941 2937 2935 2936 2939 2946 2946 2945 2943 2942 2943 2941
3052 3050 3047 3043 3039 3034 3029 3025 3020 3016 3013 3007 3005 3003 2999 2998 2998 2995 2991 2987 2983 2981 2979 2975 2970 2966 2964 2959 2957 2957 2957 2956 2951 2950 2948 2944 2940 2937 2936 2938 2945 2947 2943 2941 2941 2941 2940
3048 3046 3043 3039 3035 3031 3026 3022 3019 3015 3011 3008 3006 3003 3000 2998 2997 2995 2992 2989 2985 2981 2976 2971 2969 2965 2963 2960 2959 2960 2960 2959 2957 2953 2945 2941 2939 2939 2940 2942 2946 2946 2944 2942 2943 2947 2939
3045 3042 3039 3036 3031 3027 3024 3021 3018 3014 3011 3009 3006 3003 3002 2999 2998 2995 2993 2990 2987 2983 2978 2976 2970 2967 2964 2962 2963 2964 2963 2961 2960 2958 2954 2951 2947 2946 2946 2946 2948 2947 2945 2945 2943 2938 2936
3041 3039 3036 3032 3027 3025 3022 3019 3017 3013 3012 3009 3006 3004 3002 3001 2998 2997 2994 2991 2988 2984 2980 2976 2974 2970 2967 2966 2966 2966 2965 2964 2962 2960 2958 2957 2956 2954 2953 2951 2948 2945 2943 2941 2939 2937 2934